Back to catalog

SL-12 DEB

LostHEO
NORAD 41811·DEBRIS·🇷🇺 Russia

Launched Dec 25, 2006 from Baikonur Cosmodrome

Loading…

Next Passes (next 24 hours)

TLE

StaleSource: Space-Track

Epoch: Feb 9, 2023, 23:13 UTC

1 41811U 06062R   23040.96797287  .00003822  00000-0  61688-2 0  9999
2 41811  64.8817 226.7712 5097872 277.8106  29.6080  5.22592322115450

Track SL-12 DEB in real time with AllMySat

Download on the App Store